Location: Bonaustraße
(48.4603°N, 11.9280°E)
Time: 03:56:30
(UTC+01:00)

Envisat - Pass Details

Date: 23 January 2021
Orbit: 764 x 766 km, 98.1° (Epoch: 05 March)

Event Time Altitude Azimuth Distance (km) Brightness Sun altitude
Rises 05:07:39 0° 23° (NNE) 3,244 6.5 -27.0°
Reaches altitude 10° 05:10:19 10° 35° (NE) 2,313 5.9 -26.5°
Maximum altitude 05:14:37 27° 93° (E) 1,439 5.1 -25.8°
Drops below altitude 10° 05:18:54 10° 151° (SSE) 2,296 5.8 -25.1°
Sets 05:21:31 0° 163° (SSE) 3,217 6.5 -24.7°
